Location: Newark
(31.5350°N, 35.0986°E)
Time: 00:59:27
(UTC+00:00)

Explorer 11/Cluster Stage 4 - All Passes

Search period start: 20 September 2019 00:00
Search period end: 30 September 2019 00:00
Orbit: 467 x 1260 km, 28.8° (Epoch: 19 September)

Date Brightness Start Highest point End Pass type
(mag) Time Alt. Az. Time Alt. Az. Time Alt. Az.
20 Sep - 01:11:53 10° WSW 01:14:11 16° SSW 01:16:26 10° SSE visible
20 Sep - 17:45:46 10° SSW 17:50:51 22° SSE 17:55:14 10° ESE visible
20 Sep - 19:33:34 10° WSW 19:39:23 45° SSE 19:44:02 10° E night (unlit)
20 Sep - 21:22:39 10° W 21:27:47 63° S 21:31:54 10° E night (unlit)
20 Sep - 23:11:47 10° W 23:15:54 41° SSW 23:19:28 10° ESE night (unlit)
21 Sep - 01:01:45 10° SW 01:03:36 13° SSW 01:05:24 10° S night (unlit)
21 Sep - 17:34:24 10° SSW 17:40:09 26° SSE 17:45:03 10° ESE visible
21 Sep - 19:22:36 10° WSW 19:28:45 51° S 19:33:40 10° E visible
21 Sep - 21:11:51 10° W 21:17:13 64° S 21:21:31 10° E night (unlit)
21 Sep - 23:01:08 10° W 23:05:21 38° SSW 23:08:57 10° SE night (unlit)
22 Sep - 00:51:53 10° SW 00:53:00 11° SSW 00:54:05 10° S night (unlit)
22 Sep - 15:38:02 10° S 15:40:44 12° SSE 15:43:20 10° SE daylight
22 Sep - 17:23:07 10° SW 17:29:26 31° SSE 17:34:46 10° E visible
22 Sep - 19:11:38 10° WSW 19:18:07 56° S 19:23:16 10° E visible
22 Sep - 21:01:02 10° W 21:06:39 64° S 21:11:06 10° ESE night (unlit)
22 Sep - 22:50:29 10° W 22:54:47 35° SSW 22:58:26 10° SE night (unlit)
23 Sep - 15:25:47 10° S 15:29:57 15° SSE 15:33:52 10° ESE daylight
23 Sep - 17:11:54 10° SW 17:18:41 36° SSE 17:24:25 10° E visible
23 Sep - 19:00:41 10° WSW 19:07:27 61° S 19:12:50 10° E visible
23 Sep - 20:50:12 10° W 20:56:04 64° S 21:00:41 10° ESE night (unlit)
23 Sep - 22:39:49 10° W 22:44:12 32° SSW 22:47:53 10° SE night (unlit)
24 Sep - 15:14:00 10° SSW 15:19:07 18° SSE 15:23:56 10° ESE daylight
24 Sep - 17:00:45 10° SW 17:07:54 41° SSE 17:14:01 10° E visible
24 Sep - 18:49:44 10° WSW 18:56:47 65° S 19:02:24 10° E visible
24 Sep - 20:39:21 10° W 20:45:28 62° S 20:50:16 10° ESE night (unlit)
24 Sep - 22:29:09 10° W 22:33:34 29° SSW 22:37:18 10° SE night (unlit)
25 Sep - 15:02:26 10° SSW 15:08:17 22° SSE 15:13:46 10° ESE daylight
25 Sep - 16:49:39 10° SW 16:57:07 46° SSE 17:03:32 10° E visible
25 Sep - 18:38:48 10° WSW 18:46:05 68° S 18:51:56 10° E visible
25 Sep - 20:28:30 10° W 20:34:49 60° S 20:39:49 10° ESE night (unlit)
25 Sep - 22:18:28 10° W 22:22:56 27° SSW 22:26:41 10° SSE night (unlit)
26 Sep - 14:51:01 10° SSW 14:57:25 25° SSE 15:03:27 10° ESE daylight
26 Sep - 16:38:36 10° WSW 16:46:19 51° SSE 16:53:02 10° E visible
26 Sep - 18:27:52 10° W 18:35:22 70° S 18:41:27 10° E visible
26 Sep - 20:17:38 10° W 20:24:10 58° SSW 20:29:20 10° ESE night (unlit)
26 Sep - 22:07:47 10° W 22:12:15 24° SSW 22:16:01 10° SSE night (unlit)
27 Sep - 14:39:44 10° SSW 14:46:32 29° SSE 14:53:02 10° E daylight
27 Sep - 16:27:35 10° WSW 16:35:31 55° SSE 16:42:28 10° E visible
27 Sep - 18:16:58 10° W 18:24:38 72° S 18:30:57 10° E visible
27 Sep - 20:06:46 10° W 20:13:29 55° SSW 20:18:50 10° ESE visible
27 Sep - 21:57:08 10° WSW 22:01:32 22° SSW 22:05:18 10° SSE night (unlit)
28 Sep - 12:44:55 10° SSE 12:47:04 11° SE 12:49:14 10° SE daylight
28 Sep - 14:28:32 10° SW 14:35:38 33° SSE 14:42:31 10° E daylight
28 Sep - 16:16:37 10° WSW 16:24:41 60° SSE 16:31:54 10° E visible
28 Sep - 18:06:03 10° W 18:13:53 72° S 18:20:25 10° E visible
28 Sep - 19:55:54 10° W 20:02:46 52° SSW 20:08:18 10° ESE visible
28 Sep - 21:46:30 10° WSW 21:50:48 20° SSW 21:54:31 10° SSE night (unlit)
29 Sep - 12:32:38 10° S 12:36:10 13° SE 12:39:46 10° ESE daylight
29 Sep - 14:17:26 10° SW 14:24:44 36° SSE 14:31:57 10° E daylight
29 Sep - 16:05:41 10° WSW 16:13:50 63° S 16:21:16 10° E visible
29 Sep - 17:55:09 10° W 18:03:07 72° S 18:09:51 10° E visible
29 Sep - 19:45:01 10° W 19:52:01 49° SSW 19:57:43 10° SE visible
29 Sep - 21:35:56 10° WSW 21:40:02 18° SSW 21:43:38 10° S night (unlit)
